Location: Belfast
(54.5830°N, 5.9330°W)
Time: 14:06:47
(UTC+01:00)

ISS - Pass Details

Date: 20 May 2017
Orbit: 402 x 408 km, 51.6° (Epoch: 26 May)

Event Time Altitude Azimuth Distance (km) Brightness Sun altitude
Exits shadow 01:15:35 18° 119° (ESE) 1,069 -2.0 -15.4°
Drops below altitude 10° 01:16:57 10° 99° (E) 1,468 -1.1 -15.4°
Sets 01:19:17 0° 84° (E) 2,329 0.1 -15.4°
